| time (UTC) | temp F | wind direction | speed MPH | gust MPH | rain 1hr in | rain 24hr in | rain mn in | humidity % | barometer mb |
| 20260504060106 | 55 | 227 | 1.0 | 3.0 | 0.00 | 0.00 | 0.00 | 60 | 1021.0 |
| 20260504050543 | 51 | 294 | 0.0 | 2.0 | 0.00 | 0.02 | 0.00 | 71 | 1020.9 |
| 20260504045539 | 50 | 330 | 1.0 | 3.0 | 0.00 | 0.04 | 0.00 | 71 | 1020.9 |
| 20260504045038 | 49 | 251 | 0.0 | 3.0 | 0.00 | 0.04 | 0.00 | 72 | 1020.9 |
| 20260504044538 | 49 | 350 | 0.0 | 4.0 | 0.00 | 0.04 | 0.00 | 72 | 1020.8 |
| 20260504044038 | 49 | 355 | 1.0 | 4.0 | 0.00 | 0.04 | 0.00 | 72 | 1020.7 |
| 20260504043534 | 49 | 355 | 0.0 | 4.0 | 0.00 | 0.04 | 0.00 | 72 | 1020.6 |
| 20260504043041 | 49 | 76 | 1.0 | 4.0 | 0.00 | 0.04 | 0.00 | 73 | 1020.7 |
| 20260504042531 | 48 | 59 | 3.0 | 4.0 | 0.00 | 0.04 | 0.00 | 73 | 1020.7 |
| 20260504042032 | 47 | 41 | 3.0 | 4.0 | 0.00 | 0.04 | 0.00 | 74 | 1020.7 |
| 20260504041530 | 47 | 38 | 2.0 | 5.0 | 0.00 | 0.04 | 0.00 | 75 | 1020.7 |
| 20260504041028 | 47 | 15 | 4.0 | 5.0 | 0.00 | 0.04 | 0.00 | 73 | 1020.7 |
| 20260504040527 | 48 | 300 | 0.0 | 4.0 | 0.00 | 0.04 | 0.00 | 73 | 1020.6 |
| 20260504040026 | 48 | 311 | 2.0 | 4.0 | 0.00 | 0.04 | 0.00 | 73 | 1020.6 |
| 20260504035525 | 47 | 14 | 0.0 | 4.0 | 0.00 | 0.04 | 0.00 | 74 | 1020.6 |
| 20260504035027 | 47 | 360 | 1.0 | 4.0 | 0.00 | 0.04 | 0.00 | 75 | 1020.5 |
| 20260504034522 | 47 | 32 | 2.0 | 4.0 | 0.00 | 0.04 | 0.00 | 75 | 1020.5 |
| 20260504034022 | 47 | 338 | 1.0 | 4.0 | 0.00 | 0.04 | 0.00 | 74 | 1020.5 |
| 20260504033521 | 47 | 313 | 0.0 | 3.0 | 0.00 | 0.04 | 0.00 | 74 | 1020.5 |
| 20260504033021 | 47 | 9 | 0.0 | 3.0 | 0.00 | 0.04 | 0.00 | 74 | 1020.5 |
| 20260504032520 | 47 | 95 | 0.0 | 4.0 | 0.00 | 0.04 | 0.00 | 75 | 1020.5 |
| 20260504032021 | 46 | 90 | 2.0 | 4.0 | 0.00 | 0.04 | 0.00 | 75 | 1020.4 |
| 20260504031521 | 46 | 42 | 1.0 | 3.0 | 0.00 | 0.04 | 0.00 | 75 | 1020.4 |
| 20260504031020 | 46 | 355 | 1.0 | 3.0 | 0.00 | 0.04 | 0.00 | 75 | 1020.4 |
| 20260504030519 | 46 | 345 | 2.0 | 3.0 | 0.00 | 0.04 | 0.00 | 75 | 1020.3 |
| 20260504030019 | 46 | 319 | 0.0 | 3.0 | 0.00 | 0.06 | 0.00 | 75 | 1020.3 |
| 20260504025518 | 46 | 329 | 0.0 | 3.0 | 0.00 | 0.06 | 0.00 | 73 | 1020.1 |
| 20260504025017 | 47 | 333 | 0.0 | 5.0 | 0.00 | 0.06 | 0.00 | 72 | 1020.2 |
| 20260504024517 | 48 | 98 | 2.0 | 4.0 | 0.00 | 0.06 | 0.00 | 71 | 1020.2 |
| 20260504024016 | 47 | 84 | 1.0 | 3.0 | 0.00 | 0.06 | 0.00 | 72 | 1020.2 |
| 20260504023516 | 48 | 90 | 0.0 | 3.0 | 0.00 | 0.06 | 0.00 | 71 | 1020.1 |
| 20260504023016 | 48 | 78 | 2.0 | 4.0 | 0.00 | 0.06 | 0.00 | 71 | 1020.1 |
| 20260504022517 | 48 | 91 | 1.0 | 4.0 | 0.00 | 0.06 | 0.00 | 71 | 1020.1 |
| 20260504022016 | 48 | 113 | 2.0 | 4.0 | 0.00 | 0.06 | 0.00 | 72 | 1020.2 |
| 20260504021518 | 48 | 119 | 0.0 | 6.0 | 0.00 | 0.06 | 0.00 | 71 | 1020.2 |
| 20260504021014 | 48 | 118 | 3.0 | 7.0 | 0.00 | 0.06 | 0.00 | 72 | 1020.3 |
| 20260504020514 | 47 | 130 | 2.0 | 7.0 | 0.00 | 0.06 | 0.00 | 71 | 1020.3 |
| 20260504020014 | 48 | 52 | 3.0 | 8.0 | 0.00 | 0.06 | 0.00 | 70 | 1020.5 |
| 20260504015514 | 48 | 134 | 3.0 | 8.0 | 0.00 | 0.06 | 0.00 | 70 | 1020.4 |
| 20260504015014 | 47 | 30 | 3.0 | 8.0 | 0.00 | 0.06 | 0.00 | 71 | 1020.4 |
| 20260504014513 | 47 | 134 | 3.0 | 5.0 | 0.00 | 0.06 | 0.00 | 71 | 1020.3 |
| 20260504014012 | 47 | 54 | 3.0 | 5.0 | 0.00 | 0.06 | 0.00 | 70 | 1020.3 |
| 20260504013513 | 48 | 105 | 2.0 | 9.0 | 0.00 | 0.06 | 0.00 | 70 | 1020.4 |
| 20260504013016 | 48 | 92 | 4.0 | 9.0 | 0.00 | 0.06 | 0.00 | 69 | 1020.3 |
| 20260504012510 | 48 | 28 | 0.0 | 8.0 | 0.00 | 0.06 | 0.00 | 69 | 1020.4 |
| 20260504012009 | 48 | 347 | 2.0 | 5.0 | 0.00 | 0.06 | 0.00 | 68 | 1020.3 |
| 20260504011509 | 48 | 107 | 2.0 | 4.0 | 0.00 | 0.06 | 0.00 | 68 | 1020.3 |
| 20260504011010 | 49 | 98 | 0.0 | 3.0 | 0.00 | 0.06 | 0.00 | 67 | 1020.4 |
| 20260504010508 | 48 | 119 | 1.0 | 3.0 | 0.00 | 0.06 | 0.00 | 67 | 1020.3 |
| 20260504010009 | 48 | 97 | 2.0 | 4.0 | 0.00 | 0.06 | 0.00 | 68 | 1020.3 |
| 20260504005509 | 49 | 15 | 0.0 | 4.0 | 0.00 | 0.06 | 0.00 | 67 | 1020.3 |
| 20260504005008 | 48 | 119 | 0.0 | 3.0 | 0.00 | 0.06 | 0.00 | 68 | 1020.1 |
| 20260504004516 | 49 | 124 | 1.0 | 3.0 | 0.00 | 0.06 | 0.00 | 67 | 1020.2 |
| 20260504004007 | 49 | 119 | 0.0 | 3.0 | 0.00 | 0.06 | 0.00 | 66 | 1020.2 |
| 20260504003506 | 49 | 101 | 2.0 | 3.0 | 0.00 | 0.06 | 0.00 | 67 | 1020.2 |
| 20260504003006 | 49 | 296 | 1.0 | 4.0 | 0.00 | 0.06 | 0.00 | 66 | 1020.1 |
| 20260504002506 | 49 | 304 | 1.0 | 5.0 | 0.00 | 0.06 | 0.00 | 66 | 1020.1 |
| 20260504002006 | 49 | 71 | 1.0 | 8.0 | 0.00 | 0.06 | 0.00 | 66 | 1020.1 |
| 20260504001506 | 49 | 350 | 2.0 | 7.0 | 0.00 | 0.06 | 0.00 | 65 | 1020.0 |
| 20260504001007 | 49 | 212 | 0.0 | 5.0 | 0.00 | 0.06 | 0.00 | 65 | 1020.0 |
| 20260504000505 | 49 | 211 | 2.0 | 5.0 | 0.00 | 0.06 | 0.00 | 65 | 1020.0 |
| 20260504000005 | 49 | 89 | 1.0 | 3.0 | 0.00 | 0.06 | 0.00 | 66 | 1020.2 |
| 20260503235504 | 49 | 336 | 0.0 | 2.0 | 0.00 | 0.06 | 0.00 | 65 | 1020.2 |
| 20260503235004 | 49 | 337 | 0.0 | 8.0 | 0.00 | 0.06 | 0.00 | 65 | 1020.2 |
| 20260503234504 | 49 | 344 | 1.0 | 11.0 | 0.00 | 0.06 | 0.00 | 65 | 1020.2 |
| 20260503234005 | 49 | 254 | 6.0 | 11.0 | 0.00 | 0.06 | 0.00 | 66 | 1020.1 |
| 20260503233502 | 49 | 246 | 5.0 | 9.0 | 0.00 | 0.06 | 0.00 | 66 | 1020.2 |
| 20260503233001 | 49 | 261 | 2.0 | 4.0 | 0.00 | 0.06 | 0.00 | 67 | 1020.3 |
| 20260503232502 | 49 | 142 | 2.0 | 4.0 | 0.00 | 0.06 | 0.00 | 67 | 1020.2 |
| 20260503232001 | 49 | 49 | 1.0 | 3.0 | 0.00 | 0.06 | 0.00 | 68 | 1020.3 |
| 20260503231607 | 48 | 43 | 1.0 | 3.0 | 0.00 | 0.06 | 0.00 | 68 | 1020.3 |
| 20260503231100 | 48 | 42 | 1.0 | 3.0 | 0.00 | 0.06 | 0.00 | 69 | 1020.2 |
| 20260503230559 | 49 | 48 | 0.0 | 0.0 | 0.00 | 0.06 | 0.00 | 66 | 1020.2 |
| 20260503230116 | 49 | 47 | 0.0 | 1.0 | 0.00 | 0.06 | 0.00 | 66 | 1020.2 |
| 20260503225557 | 50 | 45 | 0.0 | 3.0 | 0.00 | 0.09 | 0.00 | 65 | 1020.2 |
| 20260503225056 | 50 | 27 | 1.0 | 3.0 | 0.00 | 0.09 | 0.00 | 64 | 1020.1 |
| 20260503224603 | 50 | 84 | 1.0 | 2.0 | 0.00 | 0.09 | 0.00 | 63 | 1020.2 |
| 20260503224055 | 50 | 84 | 0.0 | 3.0 | 0.00 | 0.09 | 0.00 | 63 | 1020.3 |
| 20260503223555 | 50 | 137 | 1.0 | 6.0 | 0.00 | 0.09 | 0.00 | 63 | 1020.3 |
| 20260503223054 | 50 | 130 | 2.0 | 6.0 | 0.00 | 0.09 | 0.00 | 63 | 1020.4 |
| 20260503222555 | 50 | 146 | 4.0 | 6.0 | 0.00 | 0.09 | 0.00 | 64 | 1020.3 |
| 20260503222053 | 50 | 326 | 1.0 | 4.0 | 0.00 | 0.09 | 0.00 | 63 | 1020.4 |
| 20260503221553 | 50 | 161 | 2.0 | 5.0 | 0.00 | 0.09 | 0.00 | 63 | 1020.3 |
| 20260503221054 | 50 | 161 | 0.0 | 8.0 | 0.00 | 0.09 | 0.00 | 64 | 1020.5 |
| 20260503220552 | 50 | 155 | 6.0 | 8.0 | 0.00 | 0.09 | 0.00 | 64 | 1020.4 |
| 20260503220052 | 50 | 47 | 1.0 | 4.0 | 0.00 | 0.09 | 0.00 | 64 | 1020.4 |
| 20260503215550 | 50 | 355 | 1.0 | 4.0 | 0.00 | 0.09 | 0.00 | 64 | 1020.4 |
| 20260503215052 | 50 | 360 | 1.0 | 8.0 | 0.00 | 0.09 | 0.00 | 64 | 1020.4 |
| 20260503214551 | 50 | 296 | 2.0 | 8.0 | 0.00 | 0.09 | 0.00 | 64 | 1020.3 |
| 20260503214050 | 50 | 333 | 4.0 | 10.0 | 0.00 | 0.09 | 0.00 | 64 | 1020.4 |
| 20260503213549 | 50 | 342 | 5.0 | 13.0 | 0.00 | 0.09 | 0.00 | 64 | 1020.3 |
| 20260503213054 | 50 | 327 | 9.0 | 13.0 | 0.00 | 0.09 | 0.00 | 63 | 1020.4 |
| 20260503212548 | 51 | 10 | 4.0 | 10.0 | 0.00 | 0.09 | 0.00 | 63 | 1020.4 |
| 20260503212047 | 51 | 338 | 7.0 | 10.0 | 0.00 | 0.09 | 0.00 | 63 | 1020.4 |
| 20260503211604 | 51 | 328 | 2.0 | 9.0 | 0.00 | 0.09 | 0.00 | 62 | 1020.3 |
| 20260503211145 | 51 | 360 | 1.0 | 6.0 | 0.00 | 0.09 | 0.00 | 62 | 1020.4 |
| 20260503210546 | 51 | 273 | 1.0 | 3.0 | 0.00 | 0.09 | 0.00 | 61 | 1020.3 |
| 20260503210044 | 51 | 299 | 0.0 | 5.0 | 0.00 | 0.09 | 0.09 | 62 | 1020.3 |
| 20260503205544 | 51 | 299 | 2.0 | 6.0 | 0.00 | 0.09 | 0.09 | 62 | 1020.3 |
| 20260503205043 | 51 | 349 | 3.0 | 8.0 | 0.00 | 0.09 | 0.09 | 62 | 1020.3 |
| 20260503204543 | 52 | 303 | 4.0 | 12.0 | 0.00 | 0.09 | 0.09 | 61 | 1020.3 |
| 20260503204043 | 52 | 294 | 8.0 | 12.0 | 0.00 | 0.09 | 0.09 | 61 | 1020.4 |
| 20260503203542 | 52 | 333 | 4.0 | 8.0 | 0.00 | 0.09 | 0.09 | 61 | 1020.3 |
| 20260503203047 | 52 | 326 | 4.0 | 8.0 | 0.00 | 0.09 | 0.09 | 60 | 1020.4 |
| 20260503202545 | 52 | 321 | 2.0 | 6.0 | 0.00 | 0.09 | 0.09 | 60 | 1020.4 |
| 20260503202043 | 52 | 248 | 0.0 | 5.0 | 0.00 | 0.09 | 0.09 | 60 | 1020.5 |
| 20260503201543 | 52 | 287 | 3.0 | 6.0 | 0.00 | 0.09 | 0.09 | 60 | 1020.4 |
| 20260503201046 | 52 | 331 | 4.0 | 8.0 | 0.00 | 0.09 | 0.09 | 60 | 1020.4 |
| 20260503200541 | 52 | 318 | 5.0 | 13.0 | 0.00 | 0.09 | 0.09 | 60 | 1020.5 |
| 20260503200054 | 52 | 311 | 5.0 | 13.0 | 0.00 | 0.09 | 0.09 | 59 | 1020.5 |
| 20260503195541 | 52 | 294 | 3.0 | 7.0 | 0.00 | 0.09 | 0.09 | 59 | 1020.5 |
| 20260503195043 | 52 | 313 | 2.0 | 10.0 | 0.00 | 0.09 | 0.09 | 59 | 1020.6 |
| 20260503194544 | 52 | 315 | 4.0 | 10.0 | 0.00 | 0.09 | 0.09 | 59 | 1020.6 |
| 20260503194042 | 52 | 323 | 6.0 | 9.0 | 0.00 | 0.09 | 0.09 | 59 | 1020.5 |
| 20260503193542 | 52 | 343 | 3.0 | 9.0 | 0.00 | 0.09 | 0.09 | 59 | 1020.5 |
| 20260503193052 | 53 | 329 | 5.0 | 9.0 | 0.00 | 0.09 | 0.09 | 58 | 1020.5 |
| 20260503192541 | 53 | 319 | 3.0 | 8.0 | 0.00 | 0.09 | 0.09 | 58 | 1020.5 |
| 20260503192040 | 53 | 360 | 4.0 | 10.0 | 0.00 | 0.09 | 0.09 | 58 | 1020.5 |
| 20260503191640 | 53 | 336 | 5.0 | 12.0 | 0.00 | 0.09 | 0.09 | 58 | 1020.5 |
| 20260503191041 | 53 | 355 | 6.0 | 12.0 | 0.00 | 0.09 | 0.09 | 59 | 1020.5 |
| 20260503190539 | 53 | 295 | 8.0 | 11.0 | 0.00 | 0.09 | 0.09 | 58 | 1020.5 |
| 20260503190044 | 52 | 315 | 7.0 | 11.0 | 0.00 | 0.09 | 0.09 | 59 | 1020.5 |
| 20260503185538 | 53 | 304 | 6.0 | 9.0 | 0.00 | 0.09 | 0.09 | 59 | 1020.4 |
| 20260503185037 | 53 | 315 | 5.0 | 10.0 | 0.00 | 0.09 | 0.09 | 58 | 1020.3 |
| 20260503184546 | 53 | 314 | 4.0 | 14.0 | 0.00 | 0.09 | 0.09 | 58 | 1020.3 |
| 20260503184036 | 53 | 313 | 7.0 | 14.0 | 0.00 | 0.09 | 0.09 | 57 | 1020.1 |
| 20260503183534 | 53 | 316 | 8.0 | 21.0 | 0.00 | 0.09 | 0.09 | 57 | 1020.0 |
| 20260503183040 | 53 | 336 | 9.0 | 21.0 | 0.00 | 0.09 | 0.09 | 57 | 1019.8 |
| 20260503182536 | 53 | 351 | 8.0 | 14.0 | 0.00 | 0.09 | 0.09 | 58 | 1019.7 |
| 20260503182033 | 53 | 331 | 8.0 | 17.0 | 0.00 | 0.09 | 0.09 | 58 | 1019.8 |
| 20260503181540 | 53 | 325 | 9.0 | 17.0 | 0.00 | 0.09 | 0.09 | 58 | 1019.7 |
| 20260503181133 | 54 | 321 | 8.0 | 12.0 | 0.00 | 0.09 | 0.09 | 57 | 1019.6 |
| 20260503180532 | 54 | 334 | 7.0 | 11.0 | 0.00 | 0.09 | 0.09 | 56 | 1019.7 |
| 20260503180133 | 54 | 355 | 6.0 | 13.0 | 0.00 | 0.09 | 0.09 | 56 | 1019.6 |
| 20260503175530 | 54 | 333 | 7.0 | 16.0 | 0.00 | 0.09 | 0.09 | 56 | 1019.6 |
| 20260503175030 | 54 | 355 | 9.0 | 16.0 | 0.00 | 0.09 | 0.09 | 56 | 1019.6 |
| 20260503174543 | 54 | 325 | 8.0 | 14.0 | 0.00 | 0.09 | 0.09 | 56 | 1019.5 |
| 20260503174030 | 54 | 360 | 6.0 | 20.0 | 0.00 | 0.09 | 0.09 | 56 | 1019.4 |
| 20260503173529 | 54 | 331 | 11.0 | 20.0 | 0.00 | 0.09 | 0.09 | 56 | 1019.4 |
| 20260503173039 | 54 | 10 | 10.0 | 16.0 | 0.00 | 0.09 | 0.09 | 56 | 1019.3 |
| 20260503172528 | 54 | 350 | 3.0 | 11.0 | 0.00 | 0.09 | 0.09 | 56 | 1019.4 |
| 20260503172031 | 54 | 360 | 6.0 | 11.0 | 0.00 | 0.09 | 0.09 | 55 | 1019.2 |
| 20260503171527 | 54 | 15 | 6.0 | 11.0 | 0.00 | 0.09 | 0.09 | 55 | 1019.2 |
| 20260503171029 | 54 | 315 | 2.0 | 17.0 | 0.00 | 0.09 | 0.09 | 55 | 1019.2 |
| 20260503170530 | 54 | 347 | 8.0 | 17.0 | 0.00 | 0.09 | 0.09 | 55 | 1019.1 |
| 20260503150524 | 56 | 335 | 10.0 | 18.0 | 0.00 | 0.09 | 0.09 | 51 | 1018.3 |
| 20260503131008 | 57 | 19 | 10.0 | 21.0 | 0.00 | 0.09 | 0.09 | 51 | 1018.2 |
| 20260503130507 | 57 | 348 | 13.0 | 23.0 | 0.00 | 0.09 | 0.09 | 51 | 1018.1 |
| 20260503110553 | 52 | 310 | 10.0 | 15.0 | 0.00 | 0.09 | 0.09 | 67 | 1018.7 |
| 20260503081543 | 55 | 13 | 14.0 | 25.0 | 0.00 | 0.09 | 0.09 | 59 | 1018.3 |
| 20260503081041 | 54 | 350 | 18.0 | 25.0 | 0.00 | 0.09 | 0.09 | 58 | 1017.9 |
| 20260503080541 | 54 | 22 | 12.0 | 24.0 | 0.00 | 0.09 | 0.09 | 58 | 1018.1 |
| 20260503072537 | 53 | 20 | 11.0 | 18.0 | 0.00 | 0.09 | 0.09 | 65 | 1017.9 |
| 20260503072032 | 52 | 62 | 12.0 | 19.0 | 0.00 | 0.09 | 0.09 | 66 | 1018.0 |
| 20260503071530 | 52 | 28 | 10.0 | 19.0 | 0.00 | 0.09 | 0.09 | 65 | 1017.9 |
| 20260503071029 | 51 | 86 | 10.0 | 16.0 | 0.00 | 0.09 | 0.09 | 71 | 1018.0 |
| 20260503070528 | 49 | 17 | 4.0 | 12.0 | 0.00 | 0.09 | 0.09 | 73 | 1018.0 |